Погода в Кирове

Погода в Кирове : погода сейчас, прогноз погоды и архив. Всё, что Вы хотите узнать о погоде в Кирове!

Хотите узнать прогноз погоды в Кирове? Тогда Вам сюда: Погода в Кирове

Поиск расширенной информации на нашем сайте:

Полезная информация:

Другие новости

Новости СМИ2

Главная страница сайта

Новости сайта

03.07.2017

Напоминаем, что на нашем специализированном сайте Метеоцентр.Азия вы можете получить высокодетализированные автоматические прогнозы погоды по пунктам России, СНГ и мира в авиационном формате (включающие направление и скорость ветра, видимость, явления погоды, количество и форму облачности, нижнюю и верхнюю границу облачности).

Рекомендуем:

Погода в Кирове - сегодня

Время (UTC), дата Ветер
(°,м/с) 
Видим.   Явления Облачность Т
(°С)
Тd
(°С)
f(%) Тe
(°С)
Pmin
(гПа)
dP
(гПа)
Po
(мм)
O2
(г/м3)
Тmin Tmax R s Состояние
почвы
09 15.09.19 240 (ЮЗ) 3-8{10}  20000 м    8/8 600 м кучево-дожд. 
[Cb calv]
+12.6 +1.8 48 +12  1007.4  -0.4  741  285           
12 15.09.19 240 (ЮЗ) 2-6{08}  20000 м    8/8 600 м кучево-дожд. 
[Cb calv]
+13 +1.5 45 +13  1006.9  -0.5  741  285           
15 15.09.19 250 (З) 1-2{09}  20000 м    3/3 600 м кучево-дожд., средняя 
[Cb calv|Ac lent]
+10 +1.6 56 +11  1006.6  -0.5  741  288    +14.4       
18 15.09.19 240 (ЮЗ) 1-2{04}  20000 м    3/0 средняя 
[Ac lent]
+6.1 +1.8 74 +7  1006.6  -0.3  740  292           
21 15.09.19 220 (ЮЗ) 1-3{03}  20000 м    3/0 верхняя 
[Ci fib]
+4.7 +2 83 +6  1005.4  -1.2  740  293           
00 16.09.19 210 (ЮЗ) 1-3{04}  20000 м    ясно 
+3.5 +1.4 86 +4  1004.2  -1.3  739  294           
03 16.09.19 210 (ЮЗ) 2-4{04}  20000 м  слаб. ливневой дождь  10/10 600 м кучево-дожд. 
[Cb cap]
+4.4 +1.9 84 +4  1001.8  -2.3  737  292  +2.9    0.0    сухая 
06 16.09.19 190 (Ю) 2-5{07}  20000 м  {ливн. осадки}  10/8 300 м кучево-дожд., средняя 
[Cb calv|Ac und]
+8 +4 76 +8  998.9  -2.6  735  287           
09 16.09.19 160 (Ю) 4-8{09}  10 км  слаб. ливневой дождь  10/10 300 м кучево-дожд. 
[Cb calv]
+7.5 +5.1 85 +6  996.5  -2.4  733  287           
12 16.09.19 180 (Ю) 2-6{08}  10 км  слаб. дождь{ливн. осадки}  10/9 300 м средняя 
[Frnb|As op]
+8.1 +6.2 88 +8  994.1  -2.2  731  285           
15 16.09.19 210 (ЮЗ) 2-5{06}  10 км  слаб. дождь  10/9 300 м средняя 
[Frnb|As op]
+8.7 +7 89 +9  992.9  -1.1  731  284    +8.7     
18 16.09.19 220 (ЮЗ) 2-5{06}  20000 м  {дождь}  10/8 300 м средняя 
[Frnb|As trans]
+8.9 +7 88 +9  992.5  -0.4  730  284           
21 16.09.19 220 (ЮЗ) 2-6{06}  20000 м    10/8 300 м средняя 
[Frnb|Ac As]
+8.6 +6.8 88 +9  992.1  -0.5  730  284           
00 17.09.19 240 (ЮЗ) 1-4{06}  20000 м    10/8 300 м средняя 
[Frnb|As trans]
+8.2 +6.3 88 +9  992.4  0.3  730  285           
03 17.09.19 210 (ЮЗ) 2-4{06}  20000 м    10/10 300 м кучево-дожд. 
[Cb calv]
+8.8 +6.6 86 +9  992  -0.4  730  284  +7.8    0.1    влажная 
06 17.09.19 200 (Ю) 2-5{07}  20000 м  слаб. ливневой дождь  10/10 300 м кучево-дожд. 
[Cb cap]
+9 +7 87 +9  992.1  0.1  730  284           
09 17.09.19 220 (ЮЗ) 3-6{08}  20000 м  слаб. ливневой дождь  10/8 300 м кучево-дожд., средняя 
[Cb cap|As op]
+10 +7.7 86 +10  992.1  0.1  730  282           
12 17.09.19 210 (ЮЗ) 3-7{09}  10 км  слаб. ливневой дождь  9/9 300 м кучево-дожд. 
[Cb cap]
+11 +7 76 +11  991.8  -0.2  730  281           
15 17.09.19 220 (ЮЗ) 2-5{07}  20000 м  в посл. час ливневой дождь  8/6 300 м кучево-дожд., средняя 
[Cb cap|Ac trans]
+7.8 +5.9 88 +8  992.5  0.5  730  285    +12.1     
18 17.09.19 220 (ЮЗ) 2-3{05}  20000 м  {ливн. осадки}  4/0 средняя 
[Ac lent]
+6.9 +4.9 87 +7  992.8  0.2  730  286           
21 17.09.19 230 (ЮЗ) 2-4{06}  20000 м    10/5 600 м средняя 
[Sc|Ac As]
+7.8 +5.8 87 +8  993.1  0.4  731  285           
00 18.09.19 230 (ЮЗ) 1-3{06}  20000 м    10/6 600 м средняя 
[Sc|Ac As]
+7.4 +5.5 88 +8  993.7  0.4  731  286           
03 18.09.19 230 (ЮЗ) 2-4{06}  10 км  слаб. ливневой дождь  10/8 300 м кучево-дожд., средняя 
[Cb cap|As op]
+7.2 +5.5 89 +7  994.9  1.2  732  286  +6.7    0.4    влажная 
06 18.09.19 260 (З) 2-5{06}  20000 м  {ливн. осадки}  9/8 600 м кучево-дожд., средняя, верхняя 
[Cb calv|Ac trans|Cc]
+8.4 +5.8 84 +8  995.9  733  285           
09 18.09.19 240 (ЮЗ) 2-5{07}  10 км  ливневой дождь  10/10 300 м кучево-дожд. 
[Cb cap]
+8.6 +6.5 87 +9  996.9  734  285           
Время (UTC), дата Ветер
(°,м/с) 
Видим.   Явления Облачность Т
(°С)
Тd
(°С)
f(%) Тe
(°С)
Pmin
(гПа)
dP
(гПа)
Po
(мм)
O2
(г/м3)
Тmin Tmax R s Состояние
почвы

Для получения пояснительной информации подведите курсор к названию столбца.

ПОГОДА в Кирове - архив

Всё, что Вы хотите узнать о погоде в Кирове - удобно и подробно!

Выберите нужную дату (начиная с 1 января 2018* года) и нажмите кнопку "Найти".
Будут отображены архивные сводки погоды по пункту Киров, начиная с указанной даты.


Отображать данные в формате CSV (для использования в таблицах Excel)


Внимание! Наш архив погоды предназначен исключительно для личного некоммерческого использования в познавательных целях. Если Вам необходимы официальные справки о состоянии погоды (для производственных, юридических, коммерческих и т.п. целей), обращайтесь в органы Росгидромета.

*Примечание: данная дата относится к архиву по метеостанциям СССР (Россия, СНГ, Балтия).
Архив по метеостанциям Зарубежной Европы и Азии (кроме Китая) хранится 10 дней, по другим регионам земного шара (Китай, Африка, Америка, Австралия, Океания) - 1 день.

Киров - район местоположения метеостанции


Название, широта, долгота, высота метеостанции:
Киров 58.6°ш. 49.6°д. 158 м над ур. моря [Российская Федерация]

Дополнительная информация

В oтличие oт бoльшинства пoгoдных сайтoв мы публикуем пoдрoбную метеoинфoрмацию в детальнoм прoфессиoнальнoм фoрмате.

Характеристики температуры и влажнoсти вoздуха измеряются на высoте 2 м в тени вдали oт зданий и деревьев.
Скoрoсть ветра измеряется на высoте 10 м (на урoвне рoста челoвека скoрoсть ветра ниже в 1.5-2 раза). Если метеoстанция нахoдится в гoрoде или в лесу, тo скoрoсть ветра занижена на 2-4 м/с пo сравнению с oткрытым местoм. Скoрoсть ветра над акватoриями крупных рек и oзёр, а также на вершинах хoлмoв на 2-5 м/с выше, чем в oбычных услoвиях.
Атмoсфернoе давление в разных тoчках местнoсти мoжет значительнo oтличаться oт давления на метеoстанции, в зависимoсти oт услoвий рельефа (при пoдъёме на 10 м давление пoнижается примернo на 1 мм рт.ст.).